Location: Gwatt
(46.7204°N, 7.6223°E)
Time: 00:06:21
(UTC+00:00)

Envisat - Pass Details

Date: 30 November 2020
Orbit: 764 x 766 km, 98.1° (Epoch: 19 January)

Event Time Altitude Azimuth Distance (km) Brightness Sun altitude
Rises 04:15:44 0° 27° (NNE) 3,244 6.5 -26.2°
Reaches altitude 10° 04:18:42 10° 45° (NE) 2,312 5.9 -25.7°
Maximum altitude 04:22:19 19° 90° (E) 1,748 5.7 -25.0°
Drops below altitude 10° 04:25:55 10° 136° (SE) 2,299 6.1 -24.4°
Sets 04:28:51 0° 154° (SSE) 3,219 6.7 -23.9°
